Retour au catalogue

OPS 0856 DEB

LostPO
NORAD 23841·DEBRIS·🇺🇸 United States

Lancé Aug 19, 1966 depuis Vandenberg Space Force Base

Loading…

Prochains Passages (prochaines 24 heures)

TLE

PériméSource: Space-Track

Époque: Dec 18, 2025, 10:25 UTC

1 23841U 66077L   25352.43448157  .00000916  00000-0  65064-1 0  9995
2 23841  89.1224 156.0921 1764843 321.3076  27.3428  8.89084332175728

Suivez OPS 0856 DEB en temps réel avec AllMySat

Download on the App Store